Location: Asheville, NC
(35.6000°N, 82.5500°W)
Time: 16:11:55
(UTC-05:00)

Vanguard 2 - Pass Details

Date: 12 December 2017
Orbit: 552 x 2940 km, 32.9° (Epoch: 16 January)

Event Time Altitude Azimuth Distance (km) Brightness Sun altitude
Rises 22:12:27 0° 260° (W) 2,715 - -58.9°
Reaches altitude 10° 22:16:03 10° 224° (SW) 1,924 - -59.6°
Maximum altitude 22:17:27 11° 204° (SSW) 1,904 - -59.9°
Drops below altitude 10° 22:18:58 10° 185° (S) 2,092 - -60.2°
Sets 22:23:30 0° 152° (SSE) 3,399 - -61.0°
